56,28/09/2015 12:05,1443441915,59.68912,-3.27049,3,5,28/09/2015 12:05,1443441943,12.544,3,12.4,0,0,59.7176,-3.33,3,1
57,28/09/2015 13:05,1443445549,59.68733,-3.34143,13,3,28/09/2015 13:05,1443445509,12.587,3,12.4,0,0,59.7214,-3.3282,37,5
58,28/09/2015 14:05,1443449108,59.68912,-3.27049,4,3,28/09/2015 14:05,1443449112,12.587,3,12.4,0,0,59.722,-3.3348,3,5
59,28/09/2015 15:05,1443452723,59.88805,-6.45077,184,3,28/09/2015 15:05,1443452744,12.544,3,12.4,0,0,59.714,-3.3466,3,2
60,28/09/2015 16:05,1443456310,59.73641,-3.34557,2,4,28/09/2015 16:05,1443456301,12.458,3,12.4,0,0,59.7083,-3.3627,3,5
61,28/09/2015 17:05,1443459923,59.68733,-3.34143,3,4,28/09/2015 17:05,1443459948,12.372,3,12.4,0,0,59.7095,-3.3747,3,3
62,28/09/2015 18:06,1443463575,59.76918,-3.27862,7,3,28/09/2015 18:05,1443463502,12.329,3,12.4,0,0,59.7156,-3.3757,58,1
63,28/09/2015 19:06,1443467209,59.66652,-2.91204,388,6,28/09/2015 19:05,1443467114,12.329,3,12.4,0,0,59.7228,-3.3622,93,1
64,28/09/2015 20:05,1443470710,59.73641,-3.34557,3,2,28/09/2015 20:05,1443470712,12.329,3,12.4,0,0,59.7302,-3.3363,3,3
65,28/09/2015 21:05,1443474311,59.70899,-3.19954,3,2,28/09/2015 21:05,1443474316,12.286,3,12.4,0,0,59.7395,-3.2938,3,2
66,28/09/2015 22:05,1443477929,59.77094,-3.20749,5,3,28/09/2015 22:05,1443477943,12.286,3,12.4,0,0,59.7437,-3.2328,18,5
67,28/09/2015 23:05,1443481510,59.73995,-3.20351,2,4,28/09/2015 23:05,1443481512,12.286,3,12.4,0,0,59.7422,-3.1907,3,3
68,29/09/2015 00:06,1443485174,59.58232,-6.10544,181,2,29/09/2015 00:05,1443485136,12.286,3,12.4,0,0,59.7389,-3.1753,55,2
69,29/09/2015 01:05,1443488734,59.73995,-3.20351,3,3,29/09/2015 01:05,1443488721,12.286,3,12.4,0,0,59.7397,-3.1859,20,3
70,29/09/2015 02:05,1443492317,59.77094,-3.20749,97,2,29/09/2015 02:05,1443492312,12.286,3,12.4,0,0,59.7444,-3.2216,3,2
71,29/09/2015 03:05,1443495913,59.73995,-3.20351,3,3,29/09/2015 03:05,1443495914,12.243,3,12.4,0,0,59.7524,-3.2702,3,2
72,29/09/2015 04:05,1443499517,59.77758,-2.9229,68,2,29/09/2015 04:05,1443499521,12.286,3,12.4,0,0,59.758,-3.3104,3,2
73,29/09/2015 05:05,1443503118,59.76918,-3.27862,2,4,29/09/2015 05:05,1443503102,12.329,3,12.4,0,0,59.7577,-3.3307,3,5
74,29/09/2015 06:06,1443506796,59.73641,-3.34557,4,4,29/09/2015 06:05,1443506736,12.329,3,12.4,0,0,59.7608,-3.3328,85,1
75,29/09/2015 07:05,1443510314,59.76918,-3.27862,6,2,29/09/2015 07:05,1443510312,12.286,3,12.4,0,0,59.7661,-3.3177,3,5
76,29/09/2015 08:05,1443513958,59.77094,-3.20749,4,4,29/09/2015 08:05,1443513911,12.286,3,12.4,0,0,59.7707,-3.2847,50,3
77,29/09/2015 09:05,1443517543,59.79073,-3.13636,5,2,29/09/2015 09:05,1443517541,12.329,2,12.4,0,0,59.7774,-3.234,32,5
78,29/09/2015 10:05,1443521136,59.77094,-3.20749,5,2,29/09/2015 10:05,1443521141,12.329,2,12.4,0,0,59.7813,-3.1666,18,1
79,29/09/2015 11:05,1443524745,59.79073,-3.13636,3,5,29/09/2015 11:05,1443524705,12.329,2,12.4,0,0,59.7773,-3.1048,38,5
80,29/09/2015 12:05,1443528315,59.77598,-2.99406,3,3,29/09/2015 12:05,1443528311,12.329,2,12.4,0,0,59.7703,-3.0693,3,2
81,29/09/2015 13:06,1443532007,59.74658,-2.91927,3,2,29/09/2015 13:05,1443531929,12.329,3,12.4,0,0,59.7652,-3.0586,95,4
82,29/09/2015 14:05,1443535546,59.77433,-3.06522,2,2,29/09/2015 14:05,1443535505,12.329,3,12.4,0,0,59.7645,-3.0717,36,3
83,29/09/2015 15:05,1443539113,60.02216,-6.98251,247,4,29/09/2015 15:05,1443539130,12.329,3,12.4,0,0,59.7667,-3.1016,3,3
84,29/09/2015 16:05,1443542731,59.77433,-3.06522,2,3,29/09/2015 16:05,1443542712,12.329,3,12.4,0,0,59.7721,-3.1467,19,1
85,29/09/2015 17:05,1443546344,59.74334,-3.06141,7,3,29/09/2015 17:05,1443546312,12.329,3,12.4,0,0,59.7806,-3.1867,34,4
86,29/09/2015 18:05,1443549913,59.82173,-3.14026,5,4,29/09/2015 18:05,1443549942,12.329,3,12.4,0,0,59.789,-3.2045,3,1
87,29/09/2015 19:06,1443553585,59.78902,-3.20749,6,3,29/09/2015 19:05,1443553506,12.329,3,12.4,0,0,59.7976,-3.1954,64,1
88,29/09/2015 20:05,1443557118,59.77266,-3.13636,3,2,29/09/2015 20:05,1443557111,12.329,3,12.4,0,0,59.8046,-3.1651,3,4
89,29/09/2015 21:05,1443560744,59.79241,-3.06522,3,2,29/09/2015 21:05,1443560712,12.329,3,12.4,0,0,59.8086,-3.1125,19,1
90,29/09/2015 22:05,1443564323,59.82666,-2.92654,6,2,29/09/2015 22:05,1443564300,12.329,3,12.4,0,0,59.8051,-3.0432,3,1
91,29/09/2015 23:05,1443567925,59.79565,-2.9229,3,3,29/09/2015 23:05,1443567906,12.329,3,12.4,0,0,59.7943,-2.9785,3,1
92,30/09/2015 00:05,1443571516,59.77914,-2.85173,4,2,30/09/2015 00:05,1443571512,12.329,3,12.4,0,0,59.7794,-2.9339,3,2
93,30/09/2015 01:05,1443575113,59.79565,-2.9229,6,2,30/09/2015 01:05,1443575136,12.329,3,12.4,0,0,59.763,-2.9192,3,4
94,30/09/2015 02:06,1443578788,59.78067,-2.78055,6,3,30/09/2015 02:05,1443578712,12.329,3,12.4,0,0,59.7499,-2.9397,80,5
95,30/09/2015 03:05,1443582322,59.74498,-2.99034,2,3,30/09/2015 03:05,1443582307,12.329,3,12.4,0,0,59.7413,-2.9881,3,3
96,30/09/2015 04:05,1443585916,59.74658,-2.91927,4,3,30/09/2015 04:05,1443585951,12.329,3,12.4,0,0,59.7368,-3.0538,3,3
97,30/09/2015 05:05,1443589524,59.71237,-3.05761,5,3,30/09/2015 05:05,1443589543,12.329,3,12.4,0,0,59.7357,-3.1179,3,1
98,30/09/2015 06:05,1443593138,59.7382,-3.27455,19,4,30/09/2015 06:05,1443593142,12.286,3,12.4,0,0,59.7391,-3.1682,20,1
99,30/09/2015 07:05,1443596727,59.73995,-3.20351,3,2,30/09/2015 07:05,1443596712,12.286,3,12.4,0,0,59.7456,-3.1887,18,5
100,30/09/2015 08:05,1443600315,59.74167,-3.13247,6,2,30/09/2015 08:05,1443600310,12.286,3,12.4,0,0,59.7511,-3.1754,3,3
101,30/09/2015 09:05,1443603914,59.74167,-3.13247,3,2,30/09/2015 09:05,1443603921,12.329,3,12.4,0,0,59.7521,-3.1319,3,5
102,30/09/2015 10:05,1443607530,59.69904,-2.84466,14,2,30/09/2015 10:05,1443607520,12.329,3,12.4,0,0,59.7478,-3.0721,18,2
103,30/09/2015 11:05,1443611127,59.74658,-2.91927,2,3,30/09/2015 11:05,1443611143,12.329,3,12.4,0,0,59.7405,-3.014,18,5
104,30/09/2015 12:06,1443614764,59.74498,-2.99034,3,3,30/09/2015 12:05,1443614709,12.329,3,12.4,0,0,59.7287,-2.9602,52,2
105,30/09/2015 13:09,1443618549,59.71868,-2.77365,2,2,30/09/2015 13:05,1443618302,12.329,3,12.4,0,0,59.7138,-2.9273,242,5
106,30/09/2015 14:05,1443621958,59.71716,-2.84466,7,6,30/09/2015 14:05,1443621917,12.329,3,12.4,0,0,59.701,-2.9243,38,2
107,30/09/2015 15:07,1443625624,59.69589,-2.98664,3,4,30/09/2015 15:05,1443625506,12.329,3,12.4,0,0,59.6921,-2.9488,107,1
108,30/09/2015 16:05,1443629114,59.66492,-2.98294,3,3,30/09/2015 16:05,1443629135,12.286,3,12.4,0,0,59.6877,-2.9962,3,3
109,30/09/2015 17:05,1443632735,59.66652,-2.91204,5,3,30/09/2015 17:05,1443632723,12.286,3,12.4,0,0,59.6867,-3.0501,18,2
110,30/09/2015 18:07,1443636450,59.69425,-3.05761,2,3,30/09/2015 18:05,1443636314,12.286,3,12.3,0,0,59.6873,-3.0899,132,2
111,30/09/2015 19:06,1443639999,59.69258,-3.12858,4,2,30/09/2015 19:05,1443639944,12.286,3,12.4,0,0,59.6894,-3.1056,80,2
112,30/09/2015 20:05,1443643527,59.69425,-3.05761,2,2,30/09/2015 20:05,1443643510,12.286,3,12.3,0,0,59.6932,-3.0942,20,3
113,30/09/2015 21:09,1443647341,59.71237,-3.05761,5,5,30/09/2015 21:05,1443647110,12.243,3,12.4,0,0,59.6955,-3.0575,220,3
114,30/09/2015 22:05,1443650737,59.74167,-3.13247,15,3,30/09/2015 22:05,1443650716,12.286,3,12.3,0,0,59.696,-2.9958,18,2
115,30/09/2015 23:05,1443654322,59.69904,-2.84466,2,5,30/09/2015 23:05,1443654312,12.243,3,12.4,0,0,59.6915,-2.9205,3,4
116,01/10/2015 00:06,1443658006,59.66959,-2.77022,4,3,01/10/2015 00:05,1443657907,12.243,3,12.3,0,0,59.6817,-2.8498,99,5
117,01/10/2015 01:08,1443661734,59.67107,-2.69929,2,3,01/10/2015 01:05,1443661529,12.243,3,12.4,0,0,59.6734,-2.802,216,3
118,01/10/2015 02:06,1443665161,59.67528,-2.48647,11,2,01/10/2015 02:05,1443665112,12.286,3,12.3,0,0,59.6667,-2.7832,56,4
119,01/10/2015 03:06,1443668766,59.66807,-2.84113,4,2,01/10/2015 03:05,1443668743,12.243,3,12.3,0,0,59.6645,-2.7983,52,5
120,01/10/2015 04:05,1443672309,59.66807,-2.84113,4,3,01/10/2015 04:05,1443672313,12.243,3,12.3,0,0,59.6666,-2.8344,3,2
121,01/10/2015 05:05,1443675926,59.66807,-2.84113,3,1,01/10/2015 05:05,1443675937,12.243,3,12.3,0,0,59.6699,-2.8913,18,5
122,01/10/2015 06:05,1443679512,59.61382,-4.18664,100,2,01/10/2015 06:05,1443679503,12.243,3,12.3,0,0,59.6755,-2.9471,3,4
123,01/10/2015 07:05,1443683113,59.74658,-2.91927,6,6,01/10/2015 07:05,1443683119,12.243,3,12.3,0,0,59.6828,-2.984,3,4
124,01/10/2015 08:05,1443686728,59.69114,-1.42144,160,2,01/10/2015 08:05,1443686711,12.243,3,12.3,0,0,59.6925,-2.9948,21,2
125,01/10/2015 09:05,1443690312,59.69749,-2.91565,2,3,01/10/2015 09:05,1443690306,12.243,3,12.3,0,0,59.701,-2.975,3,5
126,01/10/2015 10:05,1443693935,59.69904,-2.84466,4,2,01/10/2015 10:05,1443693909,12.243,3,12.3,0,0,59.7068,-2.927,22,1
127,01/10/2015 11:07,1443697643,59.69904,-2.84466,4,2,01/10/2015 11:05,1443697505,12.243,3,12.3,0,0,59.7077,-2.8581,125,3
128,01/10/2015 12:06,1443701192,59.71868,-2.77365,5,2,01/10/2015 12:05,1443701108,12.243,3,12.3,0,0,59.7018,-2.7878,72,2
129,01/10/2015 13:06,1443704805,59.70205,-2.70264,3,3,01/10/2015 13:05,1443704700,12.2,3,12.3,0,0,59.6938,-2.7328,97,3
130,01/10/2015 14:06,1443708370,59.67251,-2.62836,9,5,01/10/2015 14:05,1443708312,12.2,3,12.3,0,0,59.6847,-2.7009,51,2
131,01/10/2015 15:05,1443711912,59.67251,-2.62836,4,3,01/10/2015 15:05,1443711939,12.2,3,12.3,0,0,59.6803,-2.6955,3,3
132,01/10/2015 16:05,1443715517,59.67107,-2.69929,3,5,01/10/2015 16:05,1443715548,12.2,3,12.3,0,0,59.6815,-2.7171,3,2
133,01/10/2015 17:05,1443719109,59.70057,-2.77365,3,2,01/10/2015 17:05,1443719142,12.2,2,12.3,0,0,59.6872,-2.7548,3,3
134,01/10/2015 18:06,1443722761,59.66959,-2.77022,2,569,01/10/2015 18:05,1443722713,12.2,2,12.3,0,0,59.6951,-2.7951,52,4
135,01/10/2015 19:05,1443726312,59.66959,-2.77022,5,4,01/10/2015 19:05,1443726300,12.2,2,12.3,0,0,0,0,3,1
136,01/10/2015 20:05,1443729920,59.71716,-2.84466,2,4,01/10/2015 20:05,1443729902,12.2,2,12.3,0,0,59.7155,-2.8327,3,1
137,01/10/2015 21:05,1443733526,59.70057,-2.77365,3,4,01/10/2015 21:05,1443733500,12.2,2,12.3,0,0,0,0,19,1
138,01/10/2015 22:06,1443737177,59.75115,-2.706,3,4,01/10/2015 22:05,1443737100,12.2,2,12.3,0,0,0,0,68,5
139,01/10/2015 23:07,1443740827,59.78215,-2.70936,6,2,01/10/2015 23:05,1443740731,12.2,2,12.3,0,0,59.7249,-2.6976,101,5
140,02/10/2015 00:07,1443744435,59.72438,-2.48955,3,3,02/10/2015 00:05,1443744341,12.2,2,12.3,0,0,59.7173,-2.6223,128,5
141,02/10/2015 01:05,1443747914,59.70626,-2.48955,6,4,02/10/2015 01:05,1443747931,12.2,4,12.3,0,0,59.706,-2.5574,3,1
142,02/10/2015 02:05,1443751510,59.72571,-2.41851,7,2,02/10/2015 02:05,1443751505,12.2,4,12.3,0,0,59.6959,-2.508,3,5
143,02/10/2015 03:06,1443755174,59.72571,-2.41851,8,4,02/10/2015 03:05,1443755135,12.2,4,12.3,0,0,59.6893,-2.4882,56,3
144,02/10/2015 04:05,1443758735,59.6766,-2.41551,4,3,02/10/2015 04:05,1443758708,12.2,4,12.3,0,0,59.6885,-2.4885,18,4
145,02/10/2015 05:05,1443762314,59.67391,-2.55742,2,2,02/10/2015 05:05,1443762301,12.2,3,12.3,0,0,59.6925,-2.514,3,5
146,02/10/2015 06:06,1443765970,59.67391,-2.55742,3,4,02/10/2015 06:05,1443765907,12.2,3,12.3,0,0,59.7002,-2.5482,51,1
147,02/10/2015 07:05,1443769528,59.754,-2.56377,7,4,02/10/2015 07:05,1443769505,12.2,3,12.3,0,0,59.7103,-2.5835,3,2
148,02/10/2015 08:07,1443773256,59.72438,-2.48955,3,8,02/10/2015 08:05,1443773110,12.2,3,12.3,0,0,59.7188,-2.6055,144,3
149,02/10/2015 09:05,1443776714,59.754,-2.56377,5,2,02/10/2015 09:05,1443776719,12.2,3,12.3,0,0,59.7254,-2.6084,3,3
150,02/10/2015 10:05,1443780343,59.69814,-0.42651,137,3,02/10/2015 10:05,1443780304,12.2,3,12.3,0,0,59.7283,-2.5868,32,3
151,02/10/2015 11:05,1443783921,59.70626,-2.48955,5,2,02/10/2015 11:05,1443783919,12.2,3,12.3,0,0,59.7267,-2.5474,3,5
152,02/10/2015 12:06,1443787570,59.69866,0.21326,199,3,02/10/2015 12:05,1443787551,12.2,3,12.3,0,0,59.7208,-2.4911,54,1
153,02/10/2015 13:05,1443791136,59.727,-2.34746,2,4,02/10/2015 13:05,1443791131,12.2,3,12.3,0,0,59.7092,-2.4324,18,1
154,02/10/2015 14:06,1443794762,59.70759,-2.41851,3,5,02/10/2015 14:05,1443794730,12.2,3,12.3,0,0,59.6976,-2.3876,50,1
155,02/10/2015 15:05,1443798347,59.67914,-2.27358,10,3,02/10/2015 15:05,1443798315,12.2,3,12.3,0,0,59.6885,-2.3639,34,3
156,02/10/2015 16:05,1443801926,59.67914,-2.27358,3,2,02/10/2015 16:05,1443801943,12.2,3,12.3,0,0,59.6846,-2.3621,18,1
157,02/10/2015 17:05,1443805515,59.67789,-2.34455,2,3,02/10/2015 17:05,1443805545,12.157,3,12.3,0,0,59.6863,-2.3832,3,3
158,02/10/2015 18:05,1443809110,59.727,-2.34746,6,2,02/10/2015 18:05,1443809110,12.157,3,12.3,0,0,59.6941,-2.4197,3,2
159,02/10/2015 19:06,1443812808,59.85919,0,154,8,02/10/2015 19:05,1443812714,12.157,3,12.3,0,0,59.705,-2.4652,101,2
160,02/10/2015 20:05,1443816309,59.70759,-2.41851,3,2,02/10/2015 20:05,1443816351,12.157,3,12.3,0,0,59.724,-2.5039,3,5
161,02/10/2015 21:05,1443819958,59.72571,-2.41851,3,2,02/10/2015 21:05,1443819931,12.157,3,12.3,0,0,59.7316,-2.5251,49,2
162,02/10/2015 22:05,1443823538,59.75537,-2.49265,4,2,02/10/2015 22:05,1443823514,12.157,3,12.3,0,0,59.7397,-2.524,21,3
163,02/10/2015 23:05,1443827111,59.75537,-2.49265,6,2,02/10/2015 23:05,1443827110,12.157,3,12.3,0,0,59.7423,-2.5015,3,3
164,03/10/2015 00:07,1443830835,59.72571,-2.41851,11,2,03/10/2015 00:05,1443830713,12.114,3,12.3,0,0,59.7396,-2.4618,119,1
165,03/10/2015 01:05,1443834349,59.75799,-2.35037,10,2,03/10/2015 01:05,1443834312,12.157,4,12.3,0,0,59.7298,-2.4108,39,4
166,03/10/2015 02:07,1443838025,59.72825,-2.2764,3,3,03/10/2015 02:05,1443837951,12.157,4,12.3,0,0,59.7168,-2.3624,116,3
167,03/10/2015 03:05,1443841514,59.70888,-2.34746,2,3,03/10/2015 03:05,1443841545,12.157,4,12.3,0,0,59.7049,-2.3285,3,1
168,03/10/2015 04:06,1443845171,59.67914,-2.27358,10,4,03/10/2015 04:05,1443845110,12.114,4,12.3,0,0,59.6969,-2.315,62,2
169,03/10/2015 05:05,1443848721,59.67914,-2.27358,8,3,03/10/2015 05:05,1443848710,12.114,3,12.3,0,0,59.6955,-2.3205,3,3
170,03/10/2015 06:05,1443852336,59.72825,-2.2764,5,3,03/10/2015 06:05,1443852341,12.114,3,12.3,0,0,59.7002,-2.3426,21,1
171,03/10/2015 07:05,1443855919,59.70888,-2.34746,3,2,03/10/2015 07:05,1443855911,12.114,3,12.3,0,0,59.7097,-2.3754,3,3
172,03/10/2015 09:05,1443863120,59.72571,-2.41851,3,4,03/10/2015 09:05,1443863107,12.114,3,12.3,0,0,59.7325,-2.4346,3,2
173,03/10/2015 09:05,1443863140,59.7567,-2.42151,2,3,03/10/2015 08:05,1443859537,12.071,3,12.3,0,0,59.7207,-2.4097,28,2
174,03/10/2015 10:05,1443866732,59.61635,-0.77997,136,3,03/10/2015 10:05,1443866730,12.071,3,12.3,0,0,59.7426,-2.4435,21,5
175,03/10/2015 11:05,1443870324,59.75799,-2.35037,2,2,03/10/2015 11:05,1443870313,12.071,3,12.3,0,0,59.7489,-2.4324,3,5
176,03/10/2015 12:05,1443873923,59.75537,-2.49265,5,2,03/10/2015 12:05,1443873902,12.071,3,12.3,0,0,59.7478,-2.4033,3,5
177,03/10/2015 13:05,1443877541,59.72571,-2.41851,12,4,03/10/2015 13:05,1443877501,12.071,3,12.3,0,0,59.7403,-2.364,21,1
178,03/10/2015 14:05,1443881121,59.72825,-2.2764,4,4,03/10/2015 14:05,1443881141,12.071,3,12.3,0,0,59.7292,-2.322,3,3
179,03/10/2015 15:07,1443884846,59.75925,-2.27923,3,4,03/10/2015 15:05,1443884755,12.071,3,12.3,0,0,59.7191,-2.2904,136,1
180,03/10/2015 16:05,1443888324,59.67914,-2.27358,5,2,03/10/2015 16:05,1443888342,12.071,3,12.3,0,0,59.7101,-2.2709,3,4
181,03/10/2015 17:06,1443891963,59.71135,-2.20533,3,2,03/10/2015 17:05,1443891942,12.028,3,12.3,0,0,59.7053,-2.2692,41,4
182,03/10/2015 18:05,1443895512,59.71013,-2.2764,4,3,03/10/2015 18:05,1443895522,12.028,3,12.3,0,0,59.7046,-2.2836,3,3
183,03/10/2015 19:05,1443899126,59.67914,-2.27358,9,2,03/10/2015 19:05,1443899106,12.028,3,12.3,0,0,59.7075,-2.312,15,1
184,03/10/2015 20:05,1443902728,59.72825,-2.2764,3,3,03/10/2015 20:05,1443902722,12.028,3,12.3,0,0,59.7144,-2.3475,20,2
185,03/10/2015 21:06,1443906404,59.72438,-2.48955,5,4,03/10/2015 21:05,1443906301,12.028,3,12.3,0,0,59.724,-2.3798,88,1
186,03/10/2015 22:05,1443909920,59.75799,-2.35037,8,4,03/10/2015 22:05,1443909930,12.028,3,12.3,0,0,59.7316,-2.3974,3,5
187,03/10/2015 23:05,1443913545,59.7567,-2.42151,4,5,03/10/2015 23:05,1443913559,12.028,3,12.3,0,0,59.737,-2.3967,36,3
188,04/10/2015 00:05,1443917142,59.75925,-2.27923,2,2,04/10/2015 00:05,1443917107,12.028,3,12.3,0,0,59.7375,-2.3806,24,5
189,04/10/2015 01:07,1443920870,59.72825,-2.2764,3,4,04/10/2015 01:05,1443920703,12.028,3,12.3,0,0,59.7328,-2.3493,163,2
190,04/10/2015 02:05,1443924346,59.76046,-2.20807,7,2,04/10/2015 02:05,1443924343,12.028,3,12.3,0,0,59.7236,-2.3128,36,1
191,04/10/2015 03:05,1443927939,59.68035,-2.2026,9,3,04/10/2015 03:05,1443927907,12.028,3,12.3,0,0,59.7118,-2.2785,22,3
192,04/10/2015 04:05,1443931522,59.68035,-2.2026,3,2,04/10/2015 04:05,1443931508,12.028,3,12.3,0,0,59.7002,-2.2538,3,3
193,04/10/2015 05:07,1443935245,59.68152,-2.13161,3,2,04/10/2015 05:05,1443935141,12.028,3,12.3,0,0,59.6919,-2.2444,136,3
194,04/10/2015 06:05,1443938711,59.68035,-2.2026,4,3,04/10/2015 06:05,1443938705,12.028,3,12.3,0,0,59.6881,-2.2506,3,5
195,04/10/2015 07:05,1443942314,59.72946,-2.20533,5,2,04/10/2015 07:05,1443942312,12.028,3,12.3,0,0,59.6893,-2.2703,3,4
196,04/10/2015 08:05,1443945932,59.86227,-5.65372,214,2,04/10/2015 08:05,1443945950,12.028,3,12.3,0,0,59.6939,-2.2976,21,1
197,04/10/2015 09:05,1443949511,59.71013,-2.2764,2,3,04/10/2015 09:05,1443949502,12.028,2,12.3,0,0,59.7012,-2.323,3,5
198,04/10/2015 10:06,1443953185,59.68035,-2.2026,74,3,04/10/2015 10:05,1443953144,12.028,2,12.3,0,0,59.7092,-2.34,77,2
199,04/10/2015 11:05,1443956738,59.70888,-2.34746,2,2,04/10/2015 11:05,1443956754,12.028,2,12.3,0,0,59.7153,-2.3454,22,1
200,04/10/2015 12:06,1443960381,59.71782,-1.7788,81,3,04/10/2015 12:05,1443960303,12.028,2,12.3,0,0,59.7178,-2.3387,73,5
201,04/10/2015 13:05,1443963913,59.75925,-2.27923,5,4,04/10/2015 13:05,1443963917,12.028,3,12.3,0,0,59.7162,-2.3213,3,2
202,04/10/2015 14:05,1443967508,59.68035,-2.2026,11,2,04/10/2015 14:05,1443967538,12.071,3,12.3,0,0,59.7116,-2.2956,3,5
203,04/10/2015 15:05,1443971150,59.71135,-2.20533,2,3,04/10/2015 15:05,1443971108,12.071,3,12.3,0,0,59.7047,-2.2687,36,5
204,04/10/2015 16:07,1443974840,59.71135,-2.20533,4,3,04/10/2015 16:05,1443974708,12.071,3,12.3,0,0,59.6977,-2.2465,121,3
205,04/10/2015 17:05,1443978325,59.68035,-2.2026,3,2,04/10/2015 17:05,1443978310,12.071,3,12.3,0,0,59.6911,-2.234,19,5
206,04/10/2015 18:05,1443981910,59.72946,-2.20533,5,2,04/10/2015 18:05,1443981910,12.028,3,12.3,0,0,59.687,-2.2349,3,2
207,04/10/2015 19:05,1443985509,59.68481,-1.91862,68,2,04/10/2015 19:05,1443985515,12.028,3,12.3,0,0,59.6875,-2.2497,3,2
208,04/10/2015 20:05,1443989116,59.67914,-2.27358,2,4,04/10/2015 20:05,1443989112,12.028,3,12.3,0,0,59.692,-2.2737,3,5
209,04/10/2015 21:05,1443992730,59.71252,-2.13426,3,2,04/10/2015 21:05,1443992738,12.028,3,12.3,0,0,59.6991,-2.3017,19,5
210,04/10/2015 22:05,1443996329,59.71013,-2.2764,6,2,04/10/2015 22:05,1443996303,12.028,3,12.3,0,0,59.707,-2.3259,22,3
211,04/10/2015 23:05,1443999939,59.72438,-2.48955,4,4,04/10/2015 23:05,1443999930,12.028,3,12.3,0,0,59.7146,-2.345,18,5
212,05/10/2015 00:07,1444003650,59.72825,-2.2764,2,4,05/10/2015 00:05,1444003529,12.028,3,12.3,0,0,59.72,-2.3554,132,2
213,05/10/2015 01:09,1444007367,59.75799,-2.35037,5,2,05/10/2015 01:05,1444007118,12.028,3,12.3,0,0,59.723,-2.3541,6,5
214,05/10/2015 02:05,1444010716,59.75925,-2.27923,4,2,05/10/2015 02:05,1444010733,12.028,3,12.2,0,0,59.7229,-2.3413,3,5
215,05/10/2015 03:05,1444014325,59.76164,-2.13691,8,6,05/10/2015 03:05,1444014343,11.985,3,12.3,0,0,59.7207,-2.3225,3,2
216,05/10/2015 04:06,1444017992,59.72946,-2.20533,2,2,05/10/2015 04:05,1444017932,11.985,3,12.3,0,0,59.7181,-2.3048,83,2
217,05/10/2015 05:06,1444021561,59.70888,-2.34746,2,3,05/10/2015 05:05,1444021512,12.028,3,12.3,0,0,59.7164,-2.2898,50,3
218,05/10/2015 06:05,1444025125,59.72825,-2.2764,3,4,05/10/2015 06:05,1444025137,11.985,3,12.3,0,0,59.7166,-2.2834,18,1
219,05/10/2015 07:05,1444028727,59.76046,-2.20807,8,2,05/10/2015 07:05,1444028740,12.028,3,12.3,0,0,59.7177,-2.288,18,4
220,05/10/2015 08:07,1444032448,59.72825,-2.2764,4,2,05/10/2015 08:05,1444032309,12.028,3,12.3,0,0,59.7197,-2.3022,130,2
221,05/10/2015 09:05,1444035910,59.72825,-2.2764,5,6,05/10/2015 09:05,1444035916,12.028,2,12.3,0,0,59.7237,-2.3253,3,4
222,05/10/2015 10:05,1444039534,59.83942,-4.64508,148,2,05/10/2015 10:05,1444039533,12.028,2,12.3,0,0,59.7297,-2.3522,14,2
223,05/10/2015 11:05,1444043145,59.75799,-2.35037,3,2,05/10/2015 11:05,1444043111,12.028,2,12.3,0,0,59.7379,-2.3742,36,3
224,05/10/2015 12:05,1444046758,59.75799,-2.35037,4,5,05/10/2015 12:05,1444046715,12.028,2,12.3,0,0,59.7463,-2.3884,44,2
225,05/10/2015 13:06,1444050419,59.75925,-2.27923,2,5,05/10/2015 13:05,1444050306,12.028,3,12.3,0,0,59.7562,-2.5514,110,3
226,05/10/2015 14:06,1444053978,59.75537,-2.49265,12,4,05/10/2015 14:05,1444053944,12.028,3,12.2,0,0,59.7571,-2.3774,68,2
227,05/10/2015 15:05,1444057535,59.75925,-2.27923,9,3,05/10/2015 15:05,1444057552,12.071,3,12.3,0,0,59.7579,-2.3586,19,5
228,05/10/2015 16:05,1444061130,59.72825,-2.2764,3,4,05/10/2015 16:05,1444061102,12.071,3,12.2,0,0,59.7554,-2.3385,21,2
229,05/10/2015 17:05,1444064732,59.75925,-2.27923,6,2,05/10/2015 17:05,1444064744,12.114,4,12.3,0,0,59.7512,-2.3222,18,3
230,05/10/2015 18:05,1444068346,59.75799,-2.35037,2,2,05/10/2015 18:05,1444068308,12.114,4,12.3,0,0,59.7494,-2.3147,36,3
231,05/10/2015 19:05,1444071941,59.70259,-3.91339,156,5,05/10/2015 19:05,1444071901,12.114,4,12.2,0,0,59.7494,-2.3171,35,3
232,05/10/2015 20:06,1444075577,59.75925,-2.27923,3,3,05/10/2015 20:05,1444075507,12.114,4,12.2,0,0,59.7521,-2.3303,68,3
233,05/10/2015 21:05,1444079146,59.8196,-1.49805,78,2,05/10/2015 21:05,1444079128,12.114,3,12.2,0,0,59.7595,-2.3541,38,3
234,05/10/2015 22:06,1444082763,59.75799,-2.35037,3,2,05/10/2015 22:05,1444082702,12.114,3,12.2,0,0,59.7701,-2.3846,43,3
235,05/10/2015 23:05,1444086351,59.8554,-1.00007,99,3,05/10/2015 23:05,1444086313,12.114,3,12.2,0,0,59.7847,-2.4115,35,1
236,06/10/2015 00:05,1444089929,59.88455,-2.50197,6,2,06/10/2015 00:05,1444089930,12.114,3,12.2,0,0,59.8011,-2.4343,21,4
237,06/10/2015 01:07,1444093627,59.83811,-2.35623,3,4,06/10/2015 01:05,1444093506,12.114,3,12.3,0,0,59.8149,-2.4457,118,1
238,06/10/2015 02:05,1444097157,59.80708,-2.3533,2,3,06/10/2015 02:05,1444097106,12.114,3,12.2,0,0,59.8259,-2.4451,49,1
239,06/10/2015 03:05,1444100758,59.83548,-2.49885,3,2,06/10/2015 03:05,1444100731,12.071,3,12.2,0,0,59.8319,-2.4348,50,1
240,06/10/2015 04:05,1444104317,59.88455,-2.50197,14,2,06/10/2015 04:05,1444104301,12.071,3,12.2,0,0,59.8364,-2.4185,3,3
241,06/10/2015 05:06,1444107996,59.80708,-2.3533,8,2,06/10/2015 05:05,1444107912,12.071,3,12.3,0,0,59.8372,-2.4042,86,2
242,06/10/2015 06:05,1444111552,59.85741,-2.2849,3,2,06/10/2015 06:05,1444111511,12.114,3,12.2,0,0,59.8384,-2.3907,34,3
243,06/10/2015 07:05,1444115137,59.83811,-2.35623,4,3,06/10/2015 07:05,1444115104,12.114,3,12.2,0,0,59.8403,-2.3827,21,5
244,06/10/2015 08:05,1444118716,59.80708,-2.3533,4,3,06/10/2015 08:05,1444118731,12.114,3,12.3,0,0,59.8441,-2.383,3,5
245,06/10/2015 09:05,1444122311,59.85615,-2.35623,3,3,06/10/2015 09:05,1444122316,12.114,2,12.2,0,0,59.85,-2.3899,3,2
246,06/10/2015 10:05,1444125932,59.99162,-4.88276,169,3,06/10/2015 10:05,1444125938,12.114,2,12.2,0,0,59.8588,-2.4007,27,2
247,06/10/2015 11:05,1444129524,59.85615,-2.35623,2,3,06/10/2015 11:05,1444129510,12.157,2,12.2,0,0,59.8682,-2.4098,18,1
248,06/10/2015 12:08,1444133327,59.88589,-2.43057,4,3,06/10/2015 12:05,1444133129,12.114,2,12.2,0,0,59.8802,-2.421,221,1
249,06/10/2015 13:06,1444136767,59.91824,-2.36211,6,3,06/10/2015 13:05,1444136712,12.157,3,12.2,0,0,59.8911,-2.4229,61,4
250,06/10/2015 14:05,1444140318,59.96895,-3.65679,134,3,06/10/2015 14:05,1444140317,12.114,3,12.2,0,0,59.9021,-2.4174,3,5
251,06/10/2015 15:05,1444143938,59.93624,-2.36211,6,3,06/10/2015 15:05,1444143912,12.071,3,12.2,0,0,59.9097,-2.4067,19,4
252,06/10/2015 16:05,1444147529,59.91694,-2.43361,13,3,06/10/2015 16:05,1444147512,12.071,3,12.2,0,0,59.9149,-2.3905,20,2
253,06/10/2015 17:05,1444151133,59.9375,-2.29061,4,3,06/10/2015 17:05,1444151146,12.028,3,12.2,0,0,59.9177,-2.3705,17,1